Tracking 19831 objects as of 23-Aug-2019
HD Live streaming from Space Station
objects crossing your sky now

TIROS 6

Track TIROS 6 now!
10-day predictions
TIROS 6 is classified as:


NORAD ID: 397
Int'l Code: 1962-047A
Perigee: 605.0 km
Apogee: 615.2 km
Inclination: 58.3 °
Period: 96.7 minutes
Semi major axis: 6981 km
RCS: 0.807 m2 (medium)
Launch date: September 18, 1962
Source: United States (US)
Launch site: AIR FORCE EASTERN TEST RANGE (AFETR)
aabbcc
Your satellite tracking list
Your tracking list is empty




NASA's NSSDC Master Catalog

Two Line Element Set (TLE):
1   397U 62047A   19235.01861216 -.00000139  00000-0  81234-5 0  9990
2   397  58.3056  80.3974 0007263  13.4747 346.6490 14.88392022 62349
Source of the keplerian elements: AFSPC